| time (UTC) | temp F | wind direction | speed MPH | gust MPH | rain 1hr in | rain 24hr in | rain mn in | humidity % | barometer mb |
| 20260503172904 | 62 | 187 | 3.0 | 6.0 | 0.00 | 0.00 | 0.00 | 74 | 1009.5 |
| 20260503172404 | 62 | 210 | 4.0 | 10.0 | 0.00 | 0.00 | 0.00 | 74 | 1009.5 |
| 20260503171903 | 62 | 214 | 4.0 | 7.0 | 0.00 | 0.00 | 0.00 | 74 | 1009.5 |
| 20260503170404 | 62 | 288 | 3.0 | 6.0 | 0.00 | 0.00 | 0.00 | 73 | 1009.4 |
| 20260503150904 | 62 | 282 | 6.0 | 12.0 | 0.00 | 0.00 | 0.00 | 71 | 1009.8 |
| 20260503150403 | 62 | 279 | 5.0 | 12.0 | 0.00 | 0.00 | 0.00 | 70 | 1009.8 |
| 20260503130904 | 63 | 262 | 7.0 | 10.0 | 0.00 | 0.00 | 0.00 | 73 | 1010.3 |
| 20260503130404 | 63 | 235 | 3.0 | 8.0 | 0.00 | 0.00 | 0.00 | 75 | 1010.2 |
| 20260503090404 | 55 | 259 | 2.0 | 5.0 | 0.00 | 0.00 | 0.00 | 86 | 1010.3 |
| 20260503081404 | 54 | 306 | 2.0 | 3.0 | 0.00 | 0.00 | 0.00 | 89 | 1010.2 |
| 20260503080403 | 54 | 304 | 2.0 | 3.0 | 0.00 | 0.00 | 0.00 | 89 | 1010.3 |
| 20260503072904 | 54 | 250 | 1.0 | 6.0 | 0.00 | 0.00 | 0.00 | 90 | 1010.3 |
| 20260503072404 | 54 | 208 | 0.0 | 3.0 | 0.00 | 0.00 | 0.00 | 90 | 1010.3 |
| 20260503071904 | 54 | 145 | 1.0 | 3.0 | 0.00 | 0.00 | 0.00 | 90 | 1010.2 |
| 20260503071403 | 54 | 198 | 1.0 | 3.0 | 0.00 | 0.00 | 0.00 | 90 | 1010.3 |
| 20260503070904 | 54 | 231 | 1.0 | 3.0 | 0.00 | 0.00 | 0.00 | 90 | 1010.3 |
| 20260503070404 | 54 | 236 | 2.0 | 3.0 | 0.00 | 0.00 | 0.00 | 90 | 1010.3 |
| 20260503054903 | 53 | 185 | 0.0 | 1.0 | 0.00 | 0.00 | 0.00 | 91 | 1009.9 |
| 20260503054403 | 53 | 171 | 1.0 | 2.0 | 0.00 | 0.00 | 0.00 | 91 | 1009.8 |
| 20260503053404 | 53 | 333 | 0.0 | 0.0 | 0.00 | 0.00 | 0.00 | 91 | 1009.6 |
| 20260503052904 | 53 | 333 | 0.0 | 0.0 | 0.00 | 0.00 | 0.00 | 91 | 1009.5 |
| 20260503052404 | 53 | 333 | 0.0 | 0.0 | 0.00 | 0.00 | 0.00 | 91 | 1009.5 |
| 20260503051904 | 52 | 2 | 0.0 | 1.0 | 0.00 | 0.00 | 0.00 | 91 | 1009.4 |
| 20260503051404 | 52 | 2 | 0.0 | 0.0 | 0.00 | 0.00 | 0.00 | 91 | 1009.4 |
| 20260503050403 | 52 | 2 | 0.0 | 0.0 | 0.00 | 0.00 | 0.00 | 91 | 1009.5 |
| 20260503045904 | 52 | 2 | 0.0 | 0.0 | 0.00 | 0.00 | 0.00 | 91 | 1009.5 |
| 20260503045404 | 52 | 2 | 1.0 | 2.0 | 0.00 | 0.00 | 0.00 | 91 | 1009.5 |
| 20260503044903 | 52 | 2 | 0.0 | 2.0 | 0.00 | 0.00 | 0.00 | 91 | 1009.5 |
| 20260503044404 | 52 | 2 | 1.0 | 2.0 | 0.00 | 0.00 | 0.00 | 91 | 1009.5 |
| 20260503043904 | 52 | 2 | 1.0 | 3.0 | 0.00 | 0.00 | 0.00 | 91 | 1009.4 |
| 20260503043404 | 52 | 2 | 1.0 | 2.0 | 0.00 | 0.00 | 0.00 | 91 | 1009.5 |
| 20260503042904 | 52 | 2 | 0.0 | 0.0 | 0.00 | 0.00 | 0.00 | 90 | 1009.6 |
| 20260503042404 | 52 | 2 | 1.0 | 3.0 | 0.00 | 0.00 | 0.00 | 91 | 1009.5 |
| 20260503041904 | 52 | 2 | 0.0 | 2.0 | 0.00 | 0.00 | 0.00 | 90 | 1009.6 |
| 20260503040905 | 53 | 2 | 0.0 | 0.0 | 0.00 | 0.00 | 0.00 | 90 | 1009.6 |
| 20260503040405 | 53 | 2 | 0.0 | 0.0 | 0.00 | 0.00 | 0.00 | 90 | 1009.6 |
| 20260503035904 | 53 | 2 | 0.0 | 0.0 | 0.00 | 0.00 | 0.00 | 90 | 1009.6 |
| 20260503035403 | 53 | 2 | 0.0 | 0.0 | 0.00 | 0.00 | 0.00 | 90 | 1009.5 |
| 20260503034904 | 53 | 2 | 0.0 | 0.0 | 0.00 | 0.00 | 0.00 | 90 | 1009.6 |
| 20260503034404 | 53 | 2 | 0.0 | 0.0 | 0.00 | 0.00 | 0.00 | 90 | 1009.6 |
| 20260503033903 | 53 | 2 | 0.0 | 1.0 | 0.00 | 0.00 | 0.00 | 90 | 1009.6 |
| 20260503033404 | 53 | 2 | 0.0 | 1.0 | 0.00 | 0.00 | 0.00 | 90 | 1009.7 |
| 20260503032903 | 53 | 2 | 0.0 | 1.0 | 0.00 | 0.00 | 0.00 | 91 | 1009.6 |
| 20260503032404 | 53 | 2 | 1.0 | 2.0 | 0.00 | 0.00 | 0.00 | 90 | 1009.6 |
| 20260503031905 | 53 | 2 | 0.0 | 0.0 | 0.00 | 0.00 | 0.00 | 90 | 1009.7 |
| 20260503031404 | 53 | 2 | 0.0 | 2.0 | 0.00 | 0.00 | 0.00 | 90 | 1009.6 |
| 20260503030904 | 53 | 2 | 0.0 | 0.0 | 0.00 | 0.00 | 0.00 | 90 | 1009.7 |
| 20260503030404 | 53 | 2 | 0.0 | 0.0 | 0.00 | 0.00 | 0.00 | 90 | 1009.6 |
| 20260503025903 | 53 | 2 | 0.0 | 0.0 | 0.00 | 0.00 | 0.00 | 90 | 1009.7 |
| 20260503025404 | 53 | 2 | 0.0 | 1.0 | 0.00 | 0.00 | 0.00 | 90 | 1009.6 |
| 20260503024404 | 53 | 324 | 0.0 | 2.0 | 0.00 | 0.00 | 0.00 | 90 | 1009.5 |
| 20260503023904 | 53 | 324 | 0.0 | 3.0 | 0.00 | 0.00 | 0.00 | 91 | 1009.5 |
| 20260503023404 | 53 | 330 | 1.0 | 3.0 | 0.00 | 0.00 | 0.00 | 91 | 1009.6 |
| 20260503022904 | 53 | 337 | 2.0 | 3.0 | 0.00 | 0.00 | 0.00 | 91 | 1009.6 |
| 20260503021405 | 53 | 272 | 0.0 | 2.0 | 0.00 | 0.00 | 0.00 | 91 | 1009.7 |
| 20260503020905 | 53 | 272 | 0.0 | 2.0 | 0.00 | 0.00 | 0.00 | 91 | 1009.6 |
| 20260503020404 | 53 | 278 | 0.0 | 1.0 | 0.00 | 0.00 | 0.00 | 90 | 1009.7 |
| 20260503015904 | 53 | 278 | 0.0 | 1.0 | 0.00 | 0.00 | 0.00 | 90 | 1009.7 |
| 20260503015404 | 53 | 277 | 2.0 | 5.0 | 0.00 | 0.00 | 0.00 | 90 | 1009.7 |
| 20260503014904 | 54 | 322 | 2.0 | 3.0 | 0.00 | 0.00 | 0.00 | 90 | 1009.7 |
| 20260503014404 | 54 | 310 | 2.0 | 3.0 | 0.00 | 0.00 | 0.00 | 91 | 1009.8 |
| 20260503012904 | 54 | 295 | 1.0 | 3.0 | 0.00 | 0.00 | 0.00 | 91 | 1009.9 |
| 20260503012405 | 54 | 279 | 2.0 | 3.0 | 0.00 | 0.00 | 0.00 | 91 | 1009.9 |
| 20260503011904 | 54 | 294 | 1.0 | 3.0 | 0.00 | 0.00 | 0.00 | 91 | 1010.0 |
| 20260503011404 | 54 | 307 | 1.0 | 5.0 | 0.00 | 0.00 | 0.00 | 91 | 1010.0 |
| 20260503010905 | 54 | 249 | 1.0 | 2.0 | 0.00 | 0.00 | 0.00 | 91 | 1010.1 |
| 20260503005904 | 54 | 258 | 2.0 | 3.0 | 0.00 | 0.00 | 0.00 | 91 | 1010.1 |
| 20260503005404 | 54 | 265 | 2.0 | 3.0 | 0.00 | 0.00 | 0.00 | 91 | 1010.1 |
| 20260503004904 | 54 | 271 | 2.0 | 6.0 | 0.00 | 0.00 | 0.00 | 91 | 1010.2 |
| 20260503004404 | 54 | 292 | 2.0 | 6.0 | 0.00 | 0.00 | 0.00 | 91 | 1010.3 |
| 20260503002905 | 54 | 247 | 2.0 | 3.0 | 0.00 | 0.00 | 0.00 | 91 | 1010.5 |
| 20260503002404 | 54 | 258 | 4.0 | 7.0 | 0.00 | 0.00 | 0.00 | 91 | 1010.5 |
| 20260503001904 | 54 | 251 | 2.0 | 9.0 | 0.00 | 0.00 | 0.00 | 91 | 1010.5 |
| 20260503001404 | 54 | 259 | 3.0 | 6.0 | 0.00 | 0.00 | 0.00 | 92 | 1010.5 |
| 20260503000904 | 53 | 240 | 2.0 | 3.0 | 0.00 | 0.00 | 0.00 | 92 | 1010.5 |
| 20260503000407 | 53 | 272 | 2.0 | 5.0 | 0.00 | 0.00 | 0.00 | 92 | 1010.6 |
| 20260502235404 | 52 | 266 | 1.0 | 3.0 | 0.00 | 0.00 | 0.00 | 92 | 1010.6 |
| 20260502234904 | 52 | 233 | 1.0 | 2.0 | 0.00 | 0.00 | 0.00 | 91 | 1010.7 |
| 20260502232904 | 52 | 226 | 0.0 | 0.0 | 0.00 | 0.00 | 0.00 | 91 | 1010.8 |
| 20260502231904 | 51 | 226 | 0.0 | 1.0 | 0.00 | 0.00 | 0.00 | 91 | 1010.8 |
| 20260502231403 | 51 | 226 | 0.0 | 1.0 | 0.00 | 0.00 | 0.00 | 91 | 1010.7 |
| 20260502230403 | 51 | 226 | 0.0 | 0.0 | 0.00 | 0.00 | 0.00 | 90 | 1010.8 |
| 20260502225903 | 51 | 226 | 0.0 | 0.0 | 0.00 | 0.00 | 0.00 | 90 | 1010.7 |
| 20260502225404 | 51 | 226 | 0.0 | 1.0 | 0.00 | 0.00 | 0.00 | 91 | 1010.7 |
| 20260502224904 | 51 | 226 | 1.0 | 3.0 | 0.00 | 0.00 | 0.00 | 90 | 1010.7 |
| 20260502224404 | 51 | 175 | 0.0 | 0.0 | 0.00 | 0.00 | 0.00 | 89 | 1010.8 |
| 20260502223904 | 51 | 175 | 0.0 | 0.0 | 0.00 | 0.00 | 0.00 | 89 | 1010.9 |
| 20260502223403 | 51 | 175 | 0.0 | 0.0 | 0.00 | 0.00 | 0.00 | 89 | 1010.9 |
| 20260502222403 | 51 | 175 | 0.0 | 0.0 | 0.00 | 0.00 | 0.00 | 89 | 1010.8 |
| 20260502221904 | 52 | 175 | 0.0 | 0.0 | 0.00 | 0.00 | 0.00 | 89 | 1010.8 |
| 20260502220404 | 52 | 175 | 0.0 | 0.0 | 0.00 | 0.00 | 0.00 | 89 | 1010.8 |
| 20260502215903 | 52 | 175 | 0.0 | 0.0 | 0.00 | 0.00 | 0.00 | 89 | 1010.9 |
| 20260502214904 | 52 | 175 | 0.0 | 0.0 | 0.00 | 0.00 | 0.00 | 89 | 1010.8 |
| 20260502214404 | 52 | 175 | 0.0 | 0.0 | 0.00 | 0.00 | 0.00 | 89 | 1010.9 |
| 20260502213904 | 53 | 175 | 0.0 | 0.0 | 0.00 | 0.00 | 0.00 | 89 | 1010.9 |
| 20260502213404 | 53 | 175 | 0.0 | 0.0 | 0.00 | 0.00 | 0.00 | 89 | 1010.8 |
| 20260502212904 | 53 | 175 | 0.0 | 0.0 | 0.00 | 0.00 | 0.00 | 89 | 1010.9 |
| 20260502211904 | 53 | 175 | 0.0 | 1.0 | 0.00 | 0.00 | 0.00 | 89 | 1011.0 |
| 20260502211404 | 53 | 175 | 0.0 | 0.0 | 0.00 | 0.00 | 0.00 | 89 | 1011.0 |
| 20260502210404 | 54 | 175 | 0.0 | 2.0 | 0.00 | 0.00 | 0.00 | 89 | 1011.0 |
| 20260502205904 | 54 | 175 | 0.0 | 2.0 | 0.00 | 0.00 | 0.00 | 89 | 1011.1 |
| 20260502205404 | 54 | 159 | 1.0 | 2.0 | 0.00 | 0.00 | 0.00 | 89 | 1011.1 |
| 20260502204903 | 53 | 165 | 1.0 | 2.0 | 0.00 | 0.00 | 0.00 | 89 | 1011.1 |
| 20260502204404 | 53 | 175 | 0.0 | 2.0 | 0.00 | 0.00 | 0.00 | 89 | 1011.2 |
| 20260502203905 | 53 | 185 | 0.0 | 2.0 | 0.00 | 0.00 | 0.00 | 89 | 1011.1 |
| 20260502203404 | 53 | 153 | 0.0 | 2.0 | 0.00 | 0.00 | 0.00 | 88 | 1011.0 |
| 20260502202404 | 54 | 153 | 0.0 | 0.0 | 0.00 | 0.00 | 0.00 | 88 | 1011.0 |
| 20260502201903 | 54 | 153 | 0.0 | 1.0 | 0.00 | 0.00 | 0.00 | 88 | 1011.1 |
| 20260502201404 | 54 | 153 | 1.0 | 3.0 | 0.00 | 0.00 | 0.00 | 88 | 1011.1 |
| 20260502200403 | 54 | 158 | 1.0 | 2.0 | 0.00 | 0.00 | 0.00 | 88 | 1011.1 |
| 20260502195904 | 54 | 171 | 1.0 | 3.0 | 0.00 | 0.00 | 0.00 | 88 | 1011.2 |
| 20260502195404 | 54 | 166 | 0.0 | 3.0 | 0.00 | 0.00 | 0.00 | 88 | 1011.2 |
| 20260502194904 | 55 | 165 | 1.0 | 5.0 | 0.00 | 0.00 | 0.00 | 88 | 1011.2 |
| 20260502193905 | 55 | 150 | 3.0 | 6.0 | 0.00 | 0.00 | 0.00 | 87 | 1011.2 |
| 20260502193404 | 55 | 180 | 2.0 | 5.0 | 0.00 | 0.00 | 0.00 | 87 | 1011.1 |
| 20260502192905 | 55 | 180 | 1.0 | 3.0 | 0.00 | 0.00 | 0.00 | 87 | 1011.2 |
| 20260502192404 | 55 | 180 | 1.0 | 2.0 | 0.00 | 0.00 | 0.00 | 87 | 1011.2 |
| 20260502190904 | 55 | 176 | 2.0 | 5.0 | 0.00 | 0.00 | 0.00 | 87 | 1011.0 |
| 20260502190405 | 56 | 131 | 2.0 | 3.0 | 0.00 | 0.00 | 0.00 | 87 | 1011.1 |
| 20260502185404 | 56 | 119 | 3.0 | 5.0 | 0.00 | 0.00 | 0.00 | 87 | 1011.2 |
| 20260502184904 | 56 | 134 | 2.0 | 3.0 | 0.00 | 0.00 | 0.00 | 87 | 1011.3 |
| 20260502184403 | 56 | 122 | 2.0 | 3.0 | 0.00 | 0.00 | 0.00 | 87 | 1011.2 |
| 20260502183404 | 56 | 108 | 4.0 | 7.0 | 0.00 | 0.00 | 0.00 | 86 | 1011.1 |
| 20260502182904 | 56 | 98 | 3.0 | 7.0 | 0.00 | 0.00 | 0.00 | 87 | 1011.1 |
| 20260502182403 | 56 | 107 | 4.0 | 7.0 | 0.00 | 0.00 | 0.00 | 87 | 1011.3 |
| 20260502180903 | 56 | 113 | 3.0 | 5.0 | 0.00 | 0.00 | 0.00 | 87 | 1011.3 |
| 20260502180405 | 56 | 96 | 2.0 | 5.0 | 0.00 | 0.00 | 0.00 | 87 | 1011.4 |